This demonstration page uses our WeatherBlox Daily Observations layout. Learn more.

Left ArrowRight Arrow

Hourly Observations for December 8, 2018

Temp ( °F °C ) Dew Point ( °F °C ) Humidity (%) Winds ( mph kmh ) Pressure ( in mb ) Visibility ( mi km ) Precip ( " mm )
12:53 am 00:53 Clear with Mist and Fog 16 -8.9 12 -11.1 84 84 Calm 30.53 1034 4 6 0.00 0.00
1:36 am 01:36 Clear with Mist and Fog 16 -9 10 -12 79 79 Calm 30.59 1036 2 3 0.00 0.00
1:46 am 01:46 Clear with Mist and Fog 14 -10 10 -12 85 85 Calm 30.59 1036 3 5 0.00 0.00
1:53 am 01:53 Clear with Mist and Fog 14 -10 11 -11.7 88 88 Calm 30.52 1034 5 8 0.00 0.00
2:53 am 02:53 Clear with Mist and Fog 16 -8.9 12 -11.1 84 84 SSW 3 6 30.52 1034 5 8 0.00 0.00
3:53 am 03:53 Clear with Mist and Fog 16 -8.9 13 -10.6 88 88 SW 3 6 30.51 1033 5 8 0.00 0.00
4:53 am 04:53 Hazy 16 -8.9 11 -11.7 80 80 Calm 30.49 1033 5 8 0.00 0.00
5:53 am 05:53 Clear with Mist and Fog 19 -7.2 15 -9.4 84 84 S 5 7 30.48 1032 5 8 0.00 0.00
6:53 am 06:53 Clear with Mist and Fog 19 -7.2 15 -9.4 84 84 S 5 7 30.50 1033 5 8 0.00 0.00
7:53 am 07:53 Sunny with Mist and Fog 18 -7.8 14 -10 84 84 S 6 9 30.51 1033 4 6 0.00 0.00
8:53 am 08:53 Sunny with Mist and Fog 20 -6.7 18 -7.8 92 92 SSW 6 9 30.50 1033 5 8 0.00 0.00
9:53 am 09:53 Sunny with Mist and Fog 23 -5 19 -7.2 85 85 S 7 11 30.51 1033 6 10 0.00 0.00
10:53 am 10:53 Sunny 29 -1.7 21 -6.1 72 72 S 8 13 30.50 1033 7 11 0.00 0.00
11:53 am 11:53 Sunny 29 -1.7 20 -6.7 69 69 SSW 9 15 30.48 1032 8 13 0.00 0.00
12:53 pm 12:53 Sunny 31 -0.6 19 -7.2 61 61 SSW 9 15 30.45 1031 10 16 0.00 0.00
1:53 pm 13:53 Sunny 32 0 19 -7.2 59 59 SSW 12 19 30.41 1030 10 16 0.00 0.00
2:53 pm 14:53 Sunny 33 0.6 20 -6.7 58 58 S 9 15 30.39 1029 10 16 0.00 0.00
3:53 pm 15:53 Sunny 33 0.6 19 -7.2 56 56 SSW 9 15 30.39 1029 10 16 0.00 0.00
4:53 pm 16:53 Sunny 31 -0.6 19 -7.2 61 61 S 5 7 30.39 1029 10 16 0.00 0.00
5:53 pm 17:53 Clear 29 -1.7 19 -7.2 66 66 S 6 9 30.40 1029 10 16 0.00 0.00
6:53 pm 18:53 Clear 27 -2.8 19 -7.2 72 72 S 6 9 30.40 1030 10 16 0.00 0.00
7:53 pm 19:53 Clear 26 -3.3 19 -7.2 75 75 S 8 13 30.41 1030 9 14 0.00 0.00
8:53 pm 20:53 Clear 24 -4.4 18 -7.8 77 77 S 7 11 30.41 1030 7 11 0.00 0.00
9:53 pm 21:53 Clear 24 -4.4 18 -7.8 77 77 S 6 9 30.41 1030 8 13 0.00 0.00
10:53 pm 22:53 Clear 24 -4.4 17 -8.3 75 75 SSW 7 11 30.41 1030 8 13 0.00 0.00
11:53 pm 23:53 Clear 23 -5 17 -8.3 78 78 SW 6 9 30.41 1030 8 13 0.00 0.00

Powered by AerisWeather